Regional Weather Roundup
Issued by NWS Wilmington, NC

Home | Current Version | Previous Version | Text Only | Print | Product List | Glossary On
Versions: 1 2 3 4 5 6 7 8 9 10 11 12 13 14 15 16 17 18 19 20 21 22 23 24 25 26 27 28 29 30 31 32 33 34 35 36 37 38 39 40 41 42 43 44 45 46 47 48 49 50
654
ASUS42 KILM 010613
RWRILM
RWRILM
REGIONAL HOURLY WEATHER ROUNDUP
NATIONAL WEATHER SERVICE WILMINGTON NC
200 AM EDT SUN MAY 01 2016

NOTE: "FAIR" INDICATES FEW OR NO CLOUDS BELOW 12,000 FEET WITH NO
SIGNIFICANT WEATHER AND/OR OBSTRUCTIONS TO VISIBILITY.

...............WFO WILMINGTON COUNTY WARNING AREA...............

......COASTAL NC AND SC COUNTIES......

CITY           SKY/WX    TMP DP  RH WIND       PRES   REMARKS
WILMINGTON     CLOUDY    65  61  87 E8        30.11F
N MYRTLE BEACH CLOUDY    69  66  90 E8        30.09F
MYRTLE BEACH   CLOUDY    70  61  73 E10       30.10F

......INLAND NC AND SC COUNTIES.......

CITY           SKY/WX    TMP DP  RH WIND       PRES   REMARKS
LUMBERTON      CLOUDY    64  58  80 SE6       30.10F
ELIZABETHTOWN  CLOUDY    61  58  91 CALM      30.12F
WHITEVILLE     CLOUDY    63  60  91 NE5       30.11S
FLORENCE       CLOUDY    67  62  84 SE6       30.10S
DARLINGTON     NOT AVBL
KINGSTREE      CLOUDY    68  63  83 E3        30.09S
HARTSVILLE     CLOUDY   N/A N/A N/A SE9       30.09F
BENNETTSVILLE  CLOUDY    68  61  77 SE6       30.10F
CONWAY         CLOUDY    68  64  88 E3        30.09F FOG
GEORGETOWN     FAIR      68  66  94 E5        30.09F
MARION         CLOUDY    63  59  88 E7        30.10F

....................REST OF NORTH CAROLINA......................

.........EASTERN NC.........

CITY           SKY/WX    TMP DP  RH WIND       PRES   REMARKS
CAPE HATTERAS  MOCLDY    59  55  87 NE8       30.13F
JACKSONVILLE   CLOUDY    60  58  92 E7        30.13F
MOREHEAD CITY  CLOUDY    62  59  90 E6        30.12F
KENANSVILLE    MOCLDY    60  56  87 CALM      30.14F
NEW BERN       CLOUDY    61  57  87 E5        30.15F
ELIZABETH CITY CLOUDY    56  52  86 E9        30.16F

.........CENTRAL NC.........

CITY           SKY/WX    TMP DP  RH WIND       PRES   REMARKS
RALEIGH DURHAM CLOUDY    60  55  83 SE7       30.13S
ROCKY MOUNT    CLOUDY    57  53  86 VRB5      30.14F
ROANOKE RAPIDS NOT AVBL
FAYETTEVILLE   CLOUDY    63  57  81 SE8       30.11F
HOFFMAN        CLOUDY    64  59  82 SE9       30.10F

.........WESTERN NC.........

CITY           SKY/WX    TMP DP  RH WIND       PRES   REMARKS
CHARLOTTE      CLOUDY    66  64  93 S9        30.08S
GREENSBORO     LGT RAIN  58  58 100 SE6       30.10F FOG
HICKORY        NOT AVBL
BOONE          NOT AVBL
ASHEVILLE      NOT AVBL

.....................REST OF SOUTH CAROLINA.....................

.........EASTERN SC.........

CITY           SKY/WX    TMP DP  RH WIND       PRES   REMARKS
CHARLESTON     CLOUDY    73  66  78 SE14      30.05F
BEAUFORT MCAS  CLOUDY    75  69  81 SE6       30.05F
HILTON HEAD    CLOUDY    73  72  94 SE5       30.06F

.........CENTRAL SC.........

CITY           SKY/WX    TMP DP  RH WIND       PRES   REMARKS
COLUMBIA       CLOUDY    72  66  81 SE9       30.05S
ORANGEBURG     CLOUDY    72  67  84 SE6       30.07S
SUMTER SHAW    CLOUDY    69  64  85 SE9       30.05F

.........WESTERN SC.........

CITY           SKY/WX    TMP DP  RH WIND       PRES   REMARKS
GREENVILLE     NOT AVBL
ROCK HILL        N/A    N/A N/A N/A MISG      30.08R
ANDERSON       CLOUDY    65  64  97 NE6       30.03F
CLEMSON        NOT AVBL
GREENWOOD      LGT RAIN  70  64  81 SE13      30.03F


...................COASTAL AND OFFSHORE REPORTS..................

................LOCAL PIERS AND NC RESERVE................


STATION/POSITION TIME  SKY/WX   TEMP    WIND        PRES    VSBY
                                AIR SEA DIR/SP/G
                 (UTC)          (F)     (DEG/KT/KT) (MB)    (MI)
JOHNY MRCER PIER 0500            65 69   70/ 15/ 17 1019.0F
NC RESRV MASNBRO NOT AVBL
OCEAN CREST PIER NOT AVBL
SPRINGMAID  PIER 0500            69 71   70/ 13/ 14 1019.1R


................COASTAL AND OFFSHORE BUOYS................


STATION/POSITION TIME  SKY/WX   TEMP    WIND        PRES    VSBY
                                AIR SEA DIR/SP/G
                 (UTC)          (F)     (DEG/KT/KT) (MB)    (MI)
DIMNDSHOAL 41025 0550            67 74   50/ 12/ 14 1019.8F
WVE H/P(F/S)=  5/ 9 SWL H/P/D(F/S/D)=  5/ 60/ 9

CAPE LOOKOUT     0600            64      50/ 11/ 12 1019.7F
ONSLOW BAY 41036 NOT AVBL
ONSLOW BAY 41064 NOT AVBL
ONSLOW BAY 41159 0525               68                N/A
WVE H/P(F/S)=  4/ 9 SWL H/P/D(F/S/D)=  2/ 80/11

5SE WRITBC 41038 0508            66 68   90/ 16/ 19 1020.0F
MASNBO INL 41110 0506               68                N/A
WVE H/P(F/S)=  4/ 5

WILM HARBR 41108 0526               68                N/A
WVE H/P(F/S)=  3/ 5

27SE WRITB 41037 0508            70 72   90/ 14/ 17 1018.9F
FRYING PAN 41013 0500            72 70  110/ 12/ 17 1019.1S
SUNST NRSH 41024 0508            68 68  100/ 14/ 19 1018.8R
CAPRS NRSH 41029 0508            73 71  120/ 16/ 19 1017.8S
EDISTO     41004 0550            74 73  110/ 17/ 21 1017.5F
WVE H/P(F/S)=  5/ 5 SWL H/P/D(F/S/D)=  2/ 8



..........OFFSHORE BUOYS BEYOND 100 NM OFFSHORE...........
.....IN A TRIANGLE---HAT TO BERMUDA TO BAHAMAS TO HAT.....


STATION/POSITION TIME  SKY/WX   TEMP    WIND        PRES    VSBY
                                AIR SEA DIR/SP/G
                 (UTC)          (F)     (DEG/KT/KT) (MB)    (MI)
150E HAT   41001 NOT AVBL
W BERMUDA  41048 0550            69 69   10/ 14/ 16 1018.6F
WVE H/P(F/S)=  4/ 6 SWL H/P/D(F/S/D)=  2/ 20/ 8

ATLANTIC S 41049 0550            73 76  110/  2/  4 1016.4F
WVE H/P(F/S)=  3/ 9 SWL H/P/D(F/S/D)=  3/130/ 9

E BAHAMAS  41046 0550            78 79  100/ 12/ 14 1015.4F
WVE H/P(F/S)=  3/10 SWL H/P/D(F/S/D)=  2/ 60/10

NE BAHAMAS 41047 0550            76 77   80/ 14/ 17 1017.4F
WVE H/P(F/S)=  3/10 SWL H/P/D(F/S/D)=  2/ 70/10

120E CANVRL41010 0520            77 77  110/ 10/ 12 1017.7S

END




USA.gov is the U.S. government's official web portal to all federal, state and local government web resources and services.